Allentown, PA

11:21 PM EDT on October 18, 2019 (GMT -0400)
Allentown

Weather History for KXLL - May, 2019

Change the Weather History Date:

Sunday, May 5, 2019

  Actual Average (KABE) Record (KABE)
Temperature  
Mean Temperature 58 °F -  
Max Temperature 62 °F 67 °F 92 °F (1949)
Min Temperature 53 °F 44 °F 31 °F (1976)
Degree Days  
Heating Degree Days 8    
Growing Degree Days 8 (Base 50)    
Moisture  
Dew Point 57 °F    
Average Humidity 99    
Maximum Humidity 100    
Minimum Humidity 88    
Precipitation  
Precipitation 1.97 in - - ()
Sea Level Pressure  
Sea Level Pressure 29.81 in    
Wind  
Wind Speed 6 mph (NE)    
Max Wind Speed 17 mph    
Max Gust Speed 18 mph    
Visibility 8 miles    
Events Rain    
Averages and records for this station are not official NWS values.
T = Trace of Precipitation, MM = Missing Value Source: NWS Daily Summary

Daily Weather History Graph

Daily Weather History Graph

Search for Another Location

Airport or City:

Astronomy

May. 05, 2019 Rise Set
Actual Time 5:56 AM EDT 8:01 PM EDT
Civil Twilight 5:26 AM EDT 8:31 PM EDT
Nautical Twilight 4:49 AM EDT 9:08 PM EDT
Astronomical Twilight 4:09 AM EDT 9:48 PM EDT
Moon 6:39 AM EDT (5/5) 8:52 PM EDT (5/5)
Length of Visible Light 15h 05m
Length of Day
14h 05m
New Moon, 1% of the Moon is Illuminated
May 5
New Moon
May 11
First Quarter
May 18
Full
May 26
Last Quarter
Jun 3
New

Hourly Weather History & Observations

Time (EDT) Temp. Dew Point Humidity Pressure Visibility Wind Dir Wind Speed Gust Speed Precip Events Conditions
12:15 AM 62.6 °F 62.6 °F 100% 29.83 in 1.8 mi North 4.6 mph - 0.29 in Rain Heavy Rain
12:35 AM 62.6 °F 62.6 °F 100% 29.84 in 2.5 mi NNE 4.6 mph - 0.49 in Rain Heavy Rain
12:55 AM 60.8 °F 60.8 °F 100% 29.84 in 3.0 mi ENE 9.2 mph - 0.61 in Rain Rain
1:15 AM 60.8 °F 60.8 °F 100% 29.83 in 4.0 mi ENE 4.6 mph - 0.11 in Rain Heavy Rain
1:35 AM 60.8 °F 60.8 °F 100% 29.83 in 7.0 mi Calm Calm - 0.14 in Rain Light Rain
1:55 AM 60.8 °F 60.8 °F 100% 29.82 in 7.0 mi ENE 4.6 mph - 0.18 in Rain Rain
2:15 AM 60.8 °F 60.8 °F 100% 29.81 in 7.0 mi East 6.9 mph - 0.02 in Rain Light Rain
2:35 AM 59.0 °F 59.0 °F 100% 29.81 in 10.0 mi East 3.5 mph - 0.03 in Rain Light Rain
2:55 AM 59.0 °F 59.0 °F 100% 29.81 in 10.0 mi Calm Calm - 0.04 in Rain Light Rain
3:15 AM 59.0 °F 59.0 °F 100% 29.81 in 10.0 mi NE 4.6 mph - 0.01 in Rain Light Rain
3:35 AM 59.0 °F 59.0 °F 100% 29.81 in 7.0 mi NE 6.9 mph - 0.04 in Rain Rain
3:55 AM 59.0 °F 59.0 °F 100% 29.81 in 7.0 mi Calm Calm - 0.09 in Rain Rain
4:15 AM 59.0 °F 59.0 °F 100% 29.80 in 7.0 mi East 3.5 mph - 0.03 in Rain Rain
4:35 AM 59.0 °F 59.0 °F 100% 29.80 in 7.0 mi ENE 4.6 mph - 0.07 in Rain Rain
4:55 AM 57.2 °F 57.2 °F 100% 29.79 in 7.0 mi NE 5.8 mph - 0.13 in Rain Rain
5:15 AM 57.2 °F 57.2 °F 100% 29.79 in 7.0 mi NE 6.9 mph - 0.03 in Rain Rain
5:35 AM 57.2 °F 57.2 °F 100% 29.80 in 7.0 mi ENE 5.8 mph - 0.07 in Rain Rain
5:55 AM 57.2 °F 57.2 °F 100% 29.80 in 7.0 mi NE 4.6 mph - 0.11 in Rain Rain
6:15 AM 57.2 °F 57.2 °F 100% 29.80 in 7.0 mi NE 6.9 mph - 0.03 in Rain Rain
6:35 AM 57.2 °F 57.2 °F 100% 29.81 in 10.0 mi NNE 4.6 mph - 0.06 in Rain Rain
6:55 AM 57.2 °F 57.2 °F 100% 29.81 in 5.0 mi ENE 4.6 mph - 0.09 in Rain Rain
7:15 AM 57.2 °F 57.2 °F 100% 29.82 in 5.0 mi Calm Calm - 0.02 in Rain Rain
7:35 AM 57.2 °F 57.2 °F 100% 29.83 in 4.0 mi NE 3.5 mph - 0.07 in Rain Rain
7:55 AM 57.2 °F 57.2 °F 100% 29.82 in 5.0 mi East 6.9 mph - 0.12 in Rain Rain
8:15 AM 57.2 °F 57.2 °F 100% 29.81 in 7.0 mi ENE 5.8 mph - 0.02 in Rain Light Rain
8:35 AM 59.0 °F 59.0 °F 100% 29.81 in 10.0 mi ENE 6.9 mph - 0.03 in Rain Light Rain
8:55 AM 59.0 °F 59.0 °F 100% 29.81 in 10.0 mi ENE 6.9 mph - 0.04 in Rain Rain
9:15 AM 59.0 °F 59.0 °F 100% 29.80 in 10.0 mi NE 8.1 mph - 0.01 in Rain Light Rain
9:35 AM 59.0 °F 59.0 °F 100% 29.80 in 10.0 mi ENE 9.2 mph - 0.02 in Rain Rain
9:55 AM 59.0 °F 59.0 °F 100% 29.80 in 10.0 mi ENE 8.1 mph - 0.02 in   Drizzle
10:15 AM 59.0 °F 59.0 °F 100% 29.80 in 10.0 mi ENE 8.1 mph - 0.01 in Rain Rain
10:35 AM 59.0 °F 59.0 °F 100% 29.80 in 10.0 mi ENE 8.1 mph - 0.02 in Rain Rain
10:55 AM 59.0 °F 59.0 °F 100% 29.81 in 10.0 mi ESE 3.5 mph - 0.04 in Rain Light Rain
11:15 AM 59.0 °F 59.0 °F 100% 29.81 in 10.0 mi East 9.2 mph - 0.02 in Rain Rain
11:35 AM 59.0 °F 59.0 °F 100% 29.81 in 10.0 mi ENE 8.1 mph - 0.03 in Rain Rain
11:55 AM 59.0 °F 59.0 °F 100% 29.80 in 10.0 mi ENE 9.2 mph - 0.04 in Rain Rain
12:15 PM 59.0 °F 59.0 °F 100% 29.81 in 10.0 mi East 8.1 mph - N/A Rain Rain
12:35 PM 59.0 °F 59.0 °F 100% 29.81 in 10.0 mi East 6.9 mph - 0.01 in   Drizzle
12:55 PM 59.0 °F 59.0 °F 100% 29.81 in 7.0 mi East 9.2 mph - 0.02 in Rain Rain
1:15 PM 59.0 °F 59.0 °F 100% 29.81 in 10.0 mi ENE 11.5 mph - N/A   Overcast
1:35 PM 59.0 °F 59.0 °F 100% 29.80 in 10.0 mi ENE 8.1 mph - N/A Rain Light Rain
1:55 PM 57.2 °F 57.2 °F 100% 29.80 in 10.0 mi ENE 8.1 mph - N/A Rain Light Rain
2:15 PM 59.0 °F 59.0 °F 100% 29.79 in 10.0 mi ENE 13.8 mph - N/A   Overcast
2:35 PM 59.0 °F 59.0 °F 100% 29.79 in 10.0 mi ENE 11.5 mph - N/A   Overcast
2:55 PM 59.0 °F 57.2 °F 94% 29.78 in 10.0 mi ENE 12.7 mph - N/A   Overcast
3:15 PM 59.0 °F 57.2 °F 94% 29.78 in 10.0 mi ENE 11.5 mph - N/A   Overcast
3:35 PM 59.0 °F 57.2 °F 94% 29.77 in 10.0 mi ENE 11.5 mph - N/A   Overcast
3:55 PM 59.0 °F 55.4 °F 88% 29.77 in 10.0 mi ENE 17.3 mph - N/A Rain Light Rain
4:15 PM 59.0 °F 55.4 °F 88% 29.78 in 10.0 mi ENE 8.1 mph 18.4 mph 0.01 in Rain Light Rain
4:35 PM 57.2 °F 55.4 °F 94% 29.77 in 10.0 mi ENE 15.0 mph - 0.02 in Rain Light Rain
4:55 PM 57.2 °F 55.4 °F 94% 29.78 in 7.0 mi ENE 12.7 mph 16.1 mph 0.04 in Rain Rain
5:15 PM 55.4 °F 55.4 °F 100% 29.79 in 7.0 mi ENE 12.7 mph 17.3 mph 0.02 in Rain Rain
5:35 PM 55.4 °F 55.4 °F 100% 29.80 in 7.0 mi NE 11.5 mph 16.1 mph 0.05 in Rain Rain
5:55 PM 55.4 °F 55.4 °F 100% 29.80 in 7.0 mi NNE 8.1 mph - 0.09 in Rain Rain
6:15 PM 55.4 °F 55.4 °F 100% 29.80 in 7.0 mi NE 10.4 mph 16.1 mph 0.02 in Rain Light Rain
6:35 PM 55.4 °F 55.4 °F 100% 29.80 in 7.0 mi NE 8.1 mph - 0.05 in Rain Rain
6:55 PM 55.4 °F 55.4 °F 100% 29.81 in 10.0 mi NNE 11.5 mph - 0.07 in Rain Light Rain
7:15 PM 55.4 °F 55.4 °F 100% 29.83 in 7.0 mi NNE 5.8 mph - 0.03 in Rain Rain
7:35 PM 55.4 °F 55.4 °F 100% 29.84 in 7.0 mi NE 9.2 mph - 0.07 in Rain Rain
7:55 PM 53.6 °F 53.6 °F 100% 29.84 in 7.0 mi ENE 9.2 mph - 0.12 in Rain Rain
8:15 PM 53.6 °F 53.6 °F 100% 29.84 in 7.0 mi ENE 9.2 mph - 0.03 in Rain Rain
8:35 PM 53.6 °F 53.6 °F 100% 29.82 in 10.0 mi ENE 11.5 mph - 0.06 in Rain Rain
8:55 PM 53.6 °F 53.6 °F 100% 29.82 in 10.0 mi NE 11.5 mph - 0.08 in Rain Light Rain
9:15 PM 53.6 °F 53.6 °F 100% 29.83 in 10.0 mi NE 10.4 mph - 0.01 in Rain Light Rain
9:55 PM 53.6 °F 53.6 °F 100% 29.83 in 10.0 mi ENE 5.8 mph - 0.04 in   Light Drizzle
10:15 PM 53.6 °F 53.6 °F 100% 29.84 in 10.0 mi NNE 5.8 mph - N/A Rain Rain
10:35 PM 53.6 °F 53.6 °F 100% 29.84 in 10.0 mi NNE 8.1 mph - N/A   Drizzle
10:55 PM 53.6 °F 53.6 °F 100% 29.85 in 10.0 mi NNW 6.9 mph - N/A   Light Drizzle
11:15 PM 53.6 °F 53.6 °F 100% 29.85 in 10.0 mi NNW 4.6 mph - N/A Rain Light Rain
11:35 PM 53.6 °F 53.6 °F 100% 29.86 in 10.0 mi North 6.9 mph - N/A   Overcast
11:55 PM 53.6 °F 53.6 °F 100% 29.87 in 10.0 mi North 3.5 mph - N/A   Overcast